Regional Weather Roundup
Issued by NWS

Home | Current Version | Previous Version | Text Only | Print | Product List | Glossary Off
Versions: 1 2 3 4 5 6 7 8 9 10 11 12 13 14 15 16 17 18 19 20 21 22 23 24 25 26 27 28 29 30 31 32 33 34 35 36 37 38 39 40 41 42 43 44 45 46 47 48 49 50

000
ASUS43 KFSD 301010
RWRSD

WEATHER ROUNDUP FOR SOUTH DAKOTA
NATIONAL WEATHER SERVICE SIOUX FALLS SD
500 AM CDT SAT JUL 30 2016

NOTE: "FAIR" INDICATES FEW OR NO CLOUDS BELOW 12,000 FEET WITH NO
SIGNIFICANT WEATHER AND/OR OBSTRUCTIONS TO VISIBILITY.


SDZ001>005-009-010-012>017-301100-
NORTHWEST AND NORTH CENTRAL SOUTH DAKOTA

CITY           SKY/WX    TMP DP  RH WIND       PRES   REMARKS
BUFFALO          N/A     62  56  80 S3        29.88F
FAITH            N/A     62  58  86 S14       29.94F
MOBRIDGE       PTCLDY    67  57  70 S8        29.93F
$$

SDZ012>016-024>037-041>051-057-063-072>074-301100-
SOUTHWEST AND SOUTH CENTRAL SOUTH DAKOTA

CITY           SKY/WX    TMP DP  RH WIND       PRES   REMARKS
RAPID CTY ARPT CLEAR     53  51  93 CALM      29.97F
PIERRE         CLEAR     63  56  78 SE7       29.94F
CUSTER         CLEAR     55  50  83 W3        30.11F
ELLSWORTH AFB  CLEAR     60  57  91 S2        29.96F
PHILIP         CLEAR     62  62 100 E3        29.94F
PINE RIDGE     CLEAR     53  53 100 CALM      30.00F
WINNER         PTSUNNY   66  60  81 S12       29.99F
$$

SDZ004>011-016>023-039-040-301100-
NORTHEAST SOUTH DAKOTA

CITY           SKY/WX    TMP DP  RH WIND       PRES   REMARKS
ABERDEEN       PTCLDY    63  56  78 S9        29.98F
WATERTOWN      MOCLDY    61  57  87 S8        30.02F
BROOKINGS      PTCLDY    58  54  86 CALM      30.03F
SISSETON         N/A     66  58  75 SW5       29.99S
$$

SDZ017-020-022-023-036>040-048>070-301100-
SOUTHEAST SOUTH DAKOTA

CITY           SKY/WX    TMP DP  RH WIND       PRES   REMARKS
SIOUX FALLS    CLEAR     56  53  90 CALM      30.03F
HURON          PTCLDY    61  55  81 S8        30.00S
CHAMBERLAIN    CLEAR     59  58  96 SE7       29.99F
MITCHELL       CLEAR     60  56  86 SE6       30.01F
YANKTON        CLEAR     59  55  88 E3        30.02S
$$

ABBREVIATIONS USED IN REMARKS
   TC - TEMPERATURE IN CELSIUS
  WCI - WIND CHILL INDEX
   HX - HEAT INDEX
  VSB - VISIBILITY





USA.gov is the U.S. government's official web portal to all federal, state and local government web resources and services.